[[{"header":{"parameterUnit":"m.s-1","parameterCategory":1,"la1":30.2991,"la2":30.254,"lo1":-89.0895,"lo2":-89.0444,"dy":0.0017,"dx":0.0017,"nx":28,"ny":28,"refTime":"2024-02-29T03:00:00:Z","depth":0,"parameterNumber":2,"parameterNumberName":"U-component_of_WINDS"},"data":[0,0,0,0,0,0,0,0,0,0,0,0,0,0,0,0,0,0,0,0,0,0,0,0,0,0,0,0,0,0,0,0,0,0,0,0,0,0,0,0,0,0,0,0,0,0,0,0,0,0,0,0,0,0,0,0,0,0,-1.1491,-1.1492,0,-1.1562,-1.1563,-1.1564,-1.1639,-1.164,-1.1641,-1.1642,-1.1711,-1.1712,-1.1713,0,0,0,0,0,0,0,0,0,0,0,0,0,-1.1413,-1.1414,-1.1491,-1.1492,-1.1493,-1.1562,-1.1563,-1.1564,-1.1638,-1.164,-1.1641,-1.1642,-1.1711,-1.1712,-1.1713,0,0,0,0,0,0,0,0,0,0,0,0,0,-1.1462,-1.1414,-1.1491,-1.1538,-1.1543,-1.1562,-1.1563,-1.1564,-1.1638,-1.164,-1.1641,-1.1643,-1.1711,-1.1712,-1.1713,-1.169,0,0,-1.1717,-1.1718,0,0,0,0,0,0,0,0,-1.1459,-1.1464,-1.153,-1.1535,-1.154,-1.1593,-1.1561,-1.1606,-1.1638,-1.1602,-1.1642,-1.1643,-1.167,-1.1675,-1.1685,-1.1693,-1.1696,-1.1717,-1.1718,-1.1719,-1.1719,0,0,0,0,0,0,0,-1.1455,-1.1462,-1.1519,-1.1531,-1.1537,-1.1554,-1.1563,-1.157,-1.1626,-1.1605,-1.1611,-1.1618,-1.1673,-1.1684,-1.1687,-1.1697,-1.1717,-1.1718,-1.1719,-1.172,-1.1686,-1.1684,0,0,0,0,0,0,-1.1445,-1.1458,-1.1517,-1.1521,-1.1503,-1.1554,-1.1564,-1.1575,-1.1627,-1.1636,-1.1617,-1.1622,-1.1681,-1.1686,-1.169,-1.1663,-1.1719,-1.172,-1.1721,-1.1687,-1.1685,-1.1683,0,0,0,0,0,0,-1.1443,-1.145,-1.1514,-1.1491,-1.1501,-1.1554,-1.1565,-1.1575,-1.1585,-1.1636,-1.1645,-1.1617,-1.1682,-1.1688,-1.1689,-1.1666,-1.1721,-1.1722,-1.1689,-1.1687,-1.1684,-1.161,0,0,0,0,0,0,-1.1441,-1.1449,-1.1442,-1.1491,-1.1502,-1.1513,-1.1564,-1.1575,-1.1588,-1.1595,-1.1638,-1.1647,-1.1684,-1.1686,-1.169,-1.1669,-1.1723,-1.1691,-1.1688,-1.1685,-1.1615,-1.1606,-1.1598,0,0,0,0,0,-1.1438,-1.1419,-1.1441,-1.1448,-1.1495,-1.1511,-1.1518,-1.1561,-1.1586,-1.1578,-1.161,-1.1646,-1.1669,-1.1686,-1.1691,-1.167,-1.1693,-1.1689,-1.1685,-1.1619,-1.1607,-1.1598,0,0,0,0,0,0,-1.1366,-1.1426,-1.1452,-1.1448,-1.1474,-1.1524,-1.1516,-1.1548,-1.1567,-1.1572,-1.1625,-1.1634,-1.1627,-1.1649,-1.1667,-1.1648,-1.1686,-1.1683,-1.1633,-1.1623,-1.1615,-1.1608,-1.1724,0,0,0,0,0,-1.1349,-1.1359,-1.1411,-1.1403,-1.1415,-1.1463,-1.1472,-1.1503,-1.1531,-1.1543,-1.1575,-1.16,-1.1612,-1.1619,-1.1634,-1.1619,-1.1627,-1.1607,-1.1598,-1.1591,-1.1587,-1.1576,-1.1566,-1.1671,-1.1671,-1.1671,0,0,-1.1316,-1.135,-1.1353,-1.1389,-1.1413,-1.1419,-1.1471,-1.1478,-1.1482,-1.1543,-1.1545,-1.1569,-1.16,-1.1592,-1.159,-1.161,-1.156,-1.1586,-1.158,-1.158,-1.1571,-1.1561,-1.1552,-1.1668,-1.1669,-1.1669,0,0,-1.1257,-1.1285,-1.128,-1.1302,-1.1337,-1.1369,-1.1367,-1.1412,-1.143,-1.1433,-1.1478,-1.1483,-1.1505,-1.1524,-1.1537,-1.1482,-1.1514,-1.1486,-1.1439,-1.1428,-1.142,-1.1413,-1.1389,-1.138,-1.1482,-1.1482,-1.1482,0,-1.121,-1.1224,-1.1272,-1.1274,-1.1287,-1.1343,-1.1335,-1.1355,-1.1392,-1.1399,-1.1422,-1.1447,-1.1473,-1.1467,-1.1454,-1.1464,-1.146,-1.148,-1.1417,-1.1411,-1.1405,-1.1383,-1.1374,-1.1478,-1.1478,-1.1479,-1.1479,0,-1.1162,-1.1171,-1.1161,-1.1196,-1.1208,-1.1206,-1.1251,-1.1257,-1.1287,-1.1315,-1.1315,-1.1347,-1.1367,-1.1369,-1.1399,-1.1367,-1.1378,-1.1408,-1.1446,-1.139,-1.137,-1.1362,-1.1472,-1.1473,-1.1475,-1.1476,0,0,-1.106,-1.112,-1.1115,-1.113,-1.1172,-1.1178,-1.1177,-1.1197,-1.1199,-1.1223,-1.122,-1.1236,-1.1264,-1.1278,-1.131,-1.1301,-1.125,-1.1332,-1.1333,-1.1312,-1.1212,-1.1186,-1.1175,-1.1272,-1.1271,-1.127,-1.1208,0,-1.1006,-1.1007,-1.1049,-1.1038,-1.1044,-1.1096,-1.1094,-1.1118,-1.1144,-1.1151,-1.118,-1.1189,-1.1227,-1.1235,-1.1228,-1.1257,-1.123,-1.1263,-1.1267,-1.1267,-1.1254,-1.1166,-1.1139,-1.1079,-1.1201,-1.12,-1.1199,0,-1.0943,-1.0962,-1.0951,-1.0989,-1.0993,-1.0991,-1.1011,-1.1019,-1.1046,-1.1065,-1.1079,-1.1115,-1.1113,-1.1151,-1.1148,-1.1169,-1.1174,-1.1188,-1.1186,-1.1186,-1.1227,-1.1159,-1.1061,-1.105,-1.1188,-1.1189,-1.1189,0,-1.0864,-1.0887,-1.0883,-1.0894,-1.094,-1.0936,-1.0955,-1.0984,-1.0992,-1.1009,-1.1014,-1.1031,-1.1039,-1.105,-1.1088,-1.1113,-1.1078,-1.1121,-1.1091,-1.109,-1.1079,-1.1079,-1.0977,-1.1088,-1.1088,-1.1088,-1.1089,0,-1.0797,-1.0787,-1.0847,-1.0844,-1.0833,-1.0881,-1.0868,-1.0892,-1.0917,-1.0917,-1.0964,-1.0962,-1.1015,-1.1018,-1.1048,-1.1038,-1.1043,-1.1056,-1.1063,-1.1049,-1.1047,-1.105,-1.1054,-1.1086,-1.1087,-1.1087,-1.1087,0,-1.0707,-1.0747,-1.0744,-1.0788,-1.0798,-1.0788,-1.0824,-1.0821,-1.085,-1.0849,-1.0852,-1.0896,-1.0902,-1.0942,-1.0958,-1.0978,-1.0956,-1.0974,-1.0946,-1.095,-1.0917,-1.0918,-1.0811,-1.0797,-1.092,-1.0919,-1.0918,0,-1.066,-1.0653,-1.0695,-1.0698,-1.0715,-1.0721,-1.0728,-1.0775,-1.0781,-1.0809,-1.0802,-1.0812,-1.0823,-1.0831,-1.0863,-1.0874,-1.089,-1.0852,-1.0892,-1.0877,-1.0884,-1.0883,-1.088,-1.0842,-1.084,-1.0839,-1.0838,0,-1.057,-1.059,-1.06,-1.0616,-1.0624,-1.0639,-1.0657,-1.0657,-1.0707,-1.0711,-1.0718,-1.0726,-1.0742,-1.075,-1.0767,-1.0784,-1.0817,-1.0826,-1.0818,-1.0802,-1.0785,-1.079,-1.0918,-1.0827,-1.0828,-1.0829,-1.083,-1.083,-1.0498,-1.0492,-1.0519,-1.0528,-1.0546,-1.056,-1.0559,-1.0586,-1.0594,-1.061,-1.0637,-1.0639,-1.0663,-1.0688,-1.0703,-1.0704,-1.0724,-1.0715,-1.0712,-1.0708,-1.0698,-1.0788,-1.0708,-1.0708,-1.0708,-1.0709,-1.0709,0,-1.0407,-1.0426,-1.0434,-1.0456,-1.0462,-1.0495,-1.0515,-1.0517,-1.0519,-1.0539,-1.0547,-1.0553,-1.0561,-1.0594,-1.0604,-1.0598,-1.0613,-1.0599,-1.0598,-1.06,-1.0682,-1.0685,-1.0586,-1.0586,-1.0586,-1.0586,-1.0586,-1.0586,-1.036,-1.0351,-1.0373,-1.0372,-1.0392,-1.0395,-1.0403,-1.0415,-1.0431,-1.0435,-1.0442,-1.0463,-1.0487,-1.0499,-1.0506,-1.0516,-1.0515,-1.0494,-1.0508,-1.0583,-1.0595,-1.0606,-1.0609,-1.0495,-1.0495,-1.0425,-1.0425,-1.0424]},{"header":{"parameterUnit":"m.s-1","parameterCategory":1,"la1":30.2991,"la2":30.254,"lo1":-89.0895,"lo2":-89.0444,"dy":0.0017,"dx":0.0017,"nx":28,"ny":28,"refTime":"2024-02-29T03:00:00:Z","depth":0,"parameterNumber":3,"parameterNumberName":"V-component_of_WINDS"},"data":[0,0,0,0,0,0,0,0,0,0,0,0,0,0,0,0,0,0,0,0,0,0,0,0,0,0,0,0,0,0,0,0,0,0,0,0,0,0,0,0,0,0,0,0,0,0,0,0,0,0,0,0,0,0,0,0,0,0,5.5246,5.5248,0,5.5521,5.5524,5.5527,5.5608,5.5606,5.5605,5.5603,5.5877,5.5885,5.5894,0,0,0,0,0,0,0,0,0,0,0,0,0,5.4779,5.4787,5.5245,5.5249,5.5252,5.5521,5.5525,5.5528,5.5608,5.5606,5.5604,5.5603,5.5874,5.5884,5.5894,0,0,0,0,0,0,0,0,0,0,0,0,0,5.5011,5.479,5.5245,5.5325,5.5334,5.552,5.5525,5.5529,5.5608,5.5606,5.5604,5.5602,5.587,5.5883,5.5896,5.6019,0,0,5.5935,5.5941,0,0,0,0,0,0,0,0,5.4997,5.5028,5.5309,5.5319,5.5331,5.5528,5.546,5.5693,5.5609,5.5504,5.5603,5.5601,5.5762,5.5784,5.584,5.6032,5.6043,5.5936,5.5944,5.595,5.5953,0,0,0,0,0,0,0,5.4981,5.5016,5.5354,5.5313,5.5326,5.5344,5.5374,5.5505,5.5641,5.5513,5.552,5.5552,5.5767,5.5827,5.5847,5.6047,5.5936,5.5948,5.5956,5.5961,5.6355,5.6358,0,0,0,0,0,0,5.4953,5.5002,5.5345,5.5362,5.5156,5.5354,5.5388,5.5467,5.564,5.5665,5.5553,5.5554,5.5806,5.5832,5.5857,5.6014,5.595,5.5962,5.5969,5.6352,5.6356,5.6359,0,0,0,0,0,0,5.4942,5.4983,5.5334,5.5184,5.5231,5.5364,5.5452,5.5473,5.5534,5.5671,5.5695,5.559,5.5805,5.5838,5.5979,5.6025,5.5968,5.5979,5.6349,5.6353,5.6357,5.6328,0,0,0,0,0,0,5.4929,5.4978,5.5029,5.5185,5.5238,5.5454,5.5455,5.548,5.5557,5.5561,5.5712,5.5734,5.5806,5.5959,5.5992,5.6041,5.599,5.6346,5.6351,5.6356,5.6326,5.6331,5.6335,0,0,0,0,0,5.4912,5.5007,5.5031,5.5072,5.5304,5.5457,5.5487,5.5571,5.556,5.5611,5.5699,5.573,5.6014,5.5973,5.601,5.6064,5.6343,5.635,5.6355,5.6324,5.633,5.6335,0,0,0,0,0,0,5.4849,5.5029,5.5057,5.5207,5.5316,5.547,5.5537,5.5574,5.5687,5.5686,5.5781,5.5815,5.5948,5.602,5.5971,5.6193,5.6179,5.6193,5.6142,5.6149,5.6154,5.6134,5.6,0,0,0,0,0,5.4853,5.4965,5.5115,5.5232,5.5286,5.5401,5.5471,5.5526,5.5642,5.5688,5.5787,5.5896,5.601,5.6083,5.6195,5.6336,5.637,5.6391,5.6396,5.6399,5.641,5.6491,5.6503,5.6379,5.6379,5.6379,0,0,5.4862,5.4974,5.5038,5.5222,5.5314,5.5426,5.544,5.5557,5.564,5.5705,5.5846,5.5921,5.6049,5.619,5.6257,5.6254,5.6452,5.6407,5.6408,5.6418,5.6498,5.651,5.652,5.6383,5.6382,5.6382,0,0,5.4935,5.5031,5.5141,5.5233,5.5372,5.5449,5.5474,5.5624,5.5678,5.582,5.5872,5.597,5.6164,5.6255,5.6325,5.6433,5.6466,5.6466,5.6492,5.6569,5.6579,5.6588,5.6628,5.6641,5.6477,5.6477,5.6477,0,5.4928,5.5101,5.5191,5.5307,5.5386,5.5453,5.5563,5.5647,5.5814,5.5867,5.5861,5.6108,5.6198,5.6362,5.6389,5.6443,5.6475,5.6451,5.6571,5.6581,5.6591,5.663,5.6645,5.6476,5.6476,5.6476,5.6476,0,5.5086,5.5205,5.5276,5.5441,5.5527,5.5639,5.5744,5.582,5.5867,5.5943,5.6087,5.6198,5.6336,5.6378,5.6423,5.6549,5.6543,5.6552,5.6541,5.66,5.6639,5.6655,5.6475,5.6475,5.6476,5.6476,0,0,5.5128,5.5342,5.5367,5.5443,5.5602,5.5695,5.5809,5.5946,5.6011,5.6123,5.6221,5.6384,5.6395,5.6476,5.6531,5.6599,5.668,5.6601,5.6606,5.6613,5.6826,5.6819,5.6835,5.6701,5.6705,5.6707,5.6816,0,5.5224,5.5435,5.5519,5.569,5.5801,5.5866,5.5965,5.6072,5.6146,5.6249,5.6329,5.6444,5.6449,5.6498,5.6568,5.6655,5.6724,5.6648,5.6793,5.6797,5.6762,5.6855,5.6849,5.6946,5.6831,5.6834,5.6836,0,5.5364,5.5482,5.5665,5.5812,5.5862,5.595,5.6084,5.6181,5.6303,5.6352,5.6442,5.6495,5.6615,5.6594,5.6761,5.6707,5.6771,5.6822,5.6828,5.6847,5.6821,5.6878,5.6979,5.6994,5.686,5.6858,5.6856,0,5.5379,5.5583,5.572,5.5783,5.5957,5.6018,5.6092,5.6213,5.629,5.6405,5.6456,5.6581,5.665,5.6745,5.683,5.6807,5.6989,5.6975,5.7032,5.703,5.707,5.7067,5.7184,5.7107,5.7106,5.7106,5.7106,0,5.5479,5.5588,5.573,5.5814,5.5938,5.6032,5.6151,5.623,5.6336,5.6435,5.6496,5.6587,5.6692,5.6795,5.6861,5.699,5.702,5.7062,5.7079,5.7058,5.7053,5.7103,5.7099,5.711,5.7109,5.7108,5.7108,0,5.5518,5.5617,5.5771,5.5924,5.5965,5.605,5.618,5.6263,5.6339,5.6463,5.6498,5.6617,5.6742,5.6836,5.6996,5.704,5.7179,5.7194,5.7139,5.7148,5.7201,5.7196,5.7357,5.7384,5.7285,5.7286,5.7287,0,5.5576,5.5663,5.5826,5.5898,5.5974,5.6089,5.6169,5.6264,5.6344,5.649,5.6555,5.6686,5.6795,5.6992,5.7091,5.7215,5.7235,5.7283,5.7254,5.7232,5.7239,5.7234,5.7243,5.7288,5.7288,5.7289,5.7289,0,5.5669,5.5714,5.583,5.5963,5.6058,5.6166,5.6275,5.633,5.6443,5.653,5.6661,5.6746,5.6913,5.7041,5.7175,5.7249,5.7288,5.7297,5.7318,5.7299,5.7265,5.7286,5.7152,5.7294,5.7293,5.7293,5.7293,5.7293,5.5721,5.5802,5.5931,5.6057,5.615,5.625,5.6337,5.6425,5.6537,5.6683,5.673,5.6865,5.6984,5.7169,5.7244,5.735,5.7349,5.7378,5.7386,5.7392,5.7392,5.7246,5.7374,5.7374,5.7374,5.7374,5.7374,0,5.582,5.5906,5.6021,5.6174,5.6273,5.6304,5.6426,5.6506,5.6626,5.6735,5.6843,5.6993,5.7118,5.7228,5.7357,5.7421,5.7442,5.7451,5.7449,5.7466,5.7384,5.7355,5.7432,5.7432,5.7432,5.7432,5.7432,5.7432,5.5883,5.6022,5.6082,5.6267,5.6352,5.6488,5.6555,5.6648,5.6736,5.6902,5.7008,5.708,5.7189,5.7327,5.7443,5.7471,5.7517,5.7523,5.7556,5.7478,5.7471,5.7464,5.7438,5.7531,5.7531,5.7629,5.763,5.7631]}]]